Regional Weather Roundup
Issued by NWS Grand Forks, ND

Home | Current Version | Previous Version | Graphics & Text | Print | Product List | Glossary On
Versions: 1 2 3 4 5 6 7 8 9 10 11 12 13 14 15 16 17 18 19 20 21 22 23 24 25 26 27 28 29 30 31 32 33 34 35 36 37 38 39 40 41 42 43 44 45 46 47 48 49 50
000
ASUS43 KFGF 030110
RWRFGF
PRAIRIE TO PINES  WEATHER ROUNDUP
NATIONAL WEATHER SERVICE EASTERN NORTH DAKOTA/GRAND FORKS ND
700 PM CST FRI DEC 02 2016

 **SATELLITE DATA USED TO AUGMENT SKY COVER AT AUTOMATED STATIONS**
 *****  WEATHER ACROSS EASTERN NORTH DAKOTA  *****

CITY           SKY/WX    TMP DP  RH WIND       PRES   REMARKS
GRAND FORKS    CLOUDY    31  23  72 SW3       30.27S
GRAND FRKS AFB CLOUDY    31  22  71 W5        30.27R
GRAND FRKS NWS   N/A     30 N/A N/A W5          N/A
DEVILS LAKE    FLURRIES  27  20  75 SW10      30.24S WCI  17
FARGO          CLOUDY    30  20  66 W5        30.30S
WAHPETON ARPT  CLOUDY    28  19  69 CALM      30.31S
$$

 ***** WEATHER ACROSS CENTRAL AND WESTERN NORTH DAKOTA  *****

CITY           SKY/WX    TMP DP  RH WIND       PRES   REMARKS
BISMARCK       CLOUDY    24  21  88 SE10      30.23F WCI  14
MINOT          CLOUDY    27  23  85 SE7       30.15F WCI  19
JAMESTOWN      CLOUDY    25  17  72 SW7       30.26S WCI  17
MINOT AFB      CLOUDY    27  24  87 S12       30.14F WCI  17
GARRISON         N/A     27  24  89 S12       30.16F WCI  17
WILLISTON      CLOUDY    29  25  85 S5        30.11F WCI  24
DICKINSON      PTCLDY    25  23  92 SW8       30.11F WCI  16
HETTINGER      MOCLDY    26  24  92 SE3       30.17F
$$

 *****  OTHER AIRPORT OBSERVATIONS IN OUR AREA  *****

CITY           SKY/WX    TMP DP  RH WIND       PRES   REMARKS
WALHALLA         N/A     28  28 100 SE3       30.24S
GRAFTON AIRPOR CLOUDY    30  25  80 S3        30.27S
VALLEY CITY AR CLOUDY    27  21  80 CALM      30.29R
CANDO          CLOUDY    27  23  86 S7        30.25S WCI  19
CAVALIER APRT    N/A     32  28  86 CALM      30.25S
GWINNER        CLOUDY    28  23  80 W3        30.29F
SHEYENNE NWR     N/A     26  19  75 W3        29.95S
ROLLA          MIX PCPN  25  25 100 SW8       30.20S WCI  16
 ***** THE ABOVE OBSERVATIONS ARE NON NWS ARE NOT QUALITY
       CONTROLLED AND MAY MIS-REPORT RAIN FOR SNOW...
$$

  *****  WEATHER ACROSS NORTHERN MINNESOTA  *****

CITY           SKY/WX    TMP DP  RH WIND       PRES   REMARKS
FLAG ISLAND    CLOUDY    21  19  93 NW7       30.25R WCI  13
WARROAD        CLOUDY    25  21  86 CALM      30.25S
ROSEAU         CLOUDY    27  21  80 NW5       30.25S WCI  21
HALLOCK        CLOUDY    28  27  93 CALM      30.26S
THF RVR FALLS  CLOUDY    27  23  85 CALM      30.27R
BAUDETTE       CLOUDY    24  20  84 W7        30.24R WCI  16
WASKISH        CLOUDY    27  21  80 NW6       30.25R WCI  20
CROOKSTON      CLOUDY    30  21  69 W6        30.28S WCI  24
$$
  *****  WEATHER ACROSS CENTRAL AND WEST MINNESOTA  *****

CITY           SKY/WX    TMP DP  RH WIND       PRES   REMARKS
FOSSTON        CLOUDY    25  19  80 NW3       30.26S
BEMIDJI        CLOUDY    24  20  84 W7        30.25R WCI  16
PARK RAPIDS    CLOUDY    25  17  72 W3        30.25S
ELBOW LAKE     CLOUDY    26  20  80 CALM      30.30S
WADENA         CLOUDY    25  19  80 NW3       30.27S
DETROIT LAKES  CLOUDY    28  23  80 NW7       30.28R WCI  21
MOORHEAD       CLOUDY    28  19  69 SW5       30.30S WCI  23
FERGUS FALLS   CLOUDY    27  19  74 W5        30.33S WCI  21
MORRIS MN      CLOUDY    27  21  80 NW6       30.29F WCI  20
STAPLES        CLOUDY    25  21  86 NW5       30.27S WCI  19
$$
  *****  WEATHER ELSEWHERE ACROSS MINNESOTA  *****

CITY           SKY/WX    TMP DP  RH WIND       PRES   REMARKS
DULUTH         CLOUDY    29  24  82 NW5       30.22R WCI  24
INTRNTL FALLS  CLOUDY    23  20  88 NW8       30.24R WCI  14
ELY            CLOUDY    27  25  93 CALM      30.21R
CLOQUET        CLOUDY    28  23  80 W5        30.24R WCI  23
WHEATON        CLOUDY   N/A N/A N/A NW5       30.32S
BRAINERD       CLOUDY    26  22  84 W5        30.28R WCI  20
HIBBING        CLOUDY    25  22  88 W5        30.23R WCI  19
ALEXANDRIA     CLOUDY    26  21  81 W8        30.28S WCI  18
SAINT CLOUD    CLOUDY    29  23  78 NW7       30.28S WCI  22
MINNEAPOLIS    CLOUDY    31  23  72 W9        30.29S WCI  23
$$

  *****  WEATHER ACROSS SOUTH DAKOTA  *****

CITY           SKY/WX    TMP DP  RH WIND       PRES   REMARKS
SIOUX FALLS    CLOUDY    30  24  78 N5        30.30R
BROOKINGS      FLURRIES  26  21  81 NW7       30.28R WCI  18
WATERTOWN      CLOUDY    24  17  74 NW3       30.27S
HURON          CLOUDY    29  26  89 NE3       30.30S
SISSETON         N/A     27  19  72 NW5       30.30S WCI  22
ABERDEEN       CLOUDY    28  18  66 W5        30.30S WCI  23
MITCHELL       CLOUDY    31  26  82 CALM      30.31S
PIERRE         CLEAR     25  22  88 SE3       30.25S
MOBRIDGE       CLOUDY    29  23  78 E7        30.21F WCI  22
RAPID CITY     CLEAR     25  22  88 CALM      30.19S
$$

  *****  SOME WEATHER IN NEARBY STATES *****

CITY           SKY/WX    TMP DP  RH WIND       PRES   REMARKS
GLASGOW MT     CLEAR     25  22  88 S9        30.00F WCI  15
GREAT FALLS MT CLOUDY    28  18  66 SW16      29.97R WCI  16
CHEYENNE WY    FLURRIES  25  22  88 S8        30.13S WCI  16
SCOTTSBLUFF NE PTCLDY    31  19  61 S3        30.19F
OMAHA NE       CLOUDY    36  28  73 CALM      30.34R
DES MOINES IA  CLOUDY    38  33  82 N5        30.33R
DAVENPORT IA   CLOUDY    34  26  72 NW10      30.32R
CHICAGO IL     CLOUDY    36  25  64 N8        30.28R
EAU CLAIRE WI  CLOUDY    31  25  78 W5        30.27S
LA CROSSE WI   CLOUDY    35  23  61 NW10      30.29S
$$

  *****  SOME NATIONAL WEATHER *****

CITY           SKY/WX    TMP DP  RH WIND       PRES   REMARKS
LA GUARDIA NY  MOCLDY    48  28  46 W15G24    29.89S
RALEIGH NC     PTCLDY    43  32  65 CALM      30.14R
ATLANTA GA     PTCLDY    51  31  46 N8        30.24S
NEW ORLEANS LA LGT RAIN  61  43  51 E9        30.19S
OKLAHOMA CITY  CLOUDY    54  40  59 E8        30.13S
ALBUQUERQUE NM CLOUDY    39  18  42 E31G38    30.00R
SALT LAKE CITY PTCLDY    33  22  63 N8        30.26R
LOS ANGELES CA PTCLDY    62   6  11 NE14G25   30.02R
BOISE ID       CLOUDY    34  24  67 SE5       30.34R
SEATTLE WA     LGT RAIN  46  45  96 SW13      30.12S FOG
$$

*** WEATHER ACROSS MANITOBA...SASKATCHEWAN AND ONTARIO ***
                ***ONTARIO***

CITY           SKY/WX    TMP DP  RH WIND       PRES   REMARKS
GERALDTON      FLURRIES  25  23  93 NW5       30.16R WCI  19
THUNDER BAY    CLOUDY    30  25  80 NW7       30.22R WCI  23
SIOUX LOOKOUT  FLURRIES  23  21  93 VRB2      30.20R
TORONTO        PTCLDY    36  28  75 NW14      29.97R
BIG TROUT LK   CLOUDY    18  16  93 NW5       30.25S WCI  11
PICKLE LAKE    FLURRIES  18  16  93 NW3       30.21R
DRYDEN         CLOUDY    21  19  93 W3        30.20S
KENORA         FLURRIES  18  16  93 SW5       30.23R WCI  11
$$
                *** MANITOBA***

CITY           SKY/WX    TMP DP  RH WIND       PRES   REMARKS
BRANDON        CLOUDY    25  23  93 SW6       30.18F WCI  18
DAUPHIN        CLOUDY    28  25  86 S6        30.16F WCI  22
ISLAND LAKE    FLURRIES  14  12  92 SW6       30.25S WCI   5
PILOT MOUND      N/A     27  23  86 SW7         N/A  WCI  19
THE PAS        FLURRIES  25  23  93 SE8       30.12F WCI  16
THOMPSON       FLURRIES  16  14  93 S3        30.19F
WINNIPEG       CLOUDY    27  23  86 S7        30.25S WCI  19
LYNN LAKE      CLOUDY    18  16  93 SE8       30.06F FOG     WCI   7
CHURCHILL      CLEAR      3   1  92 SW8       30.20F WCI -10
GILLAM         LGT SNOW  10   7  85 SW5       30.25S WCI   2
$$
                ***SASKATCHEWAN***

CITY           SKY/WX    TMP DP  RH WIND       PRES   REMARKS
ESTEVAN        FLURRIES  27  27 100 SE3       30.09F
KINDERSLEY     CLOUDY    23  21  93 SE15      29.87F WCI  10
LLOYDMINSTER   LGT SNOW  23  21  93 SE20      29.81F FOG     WCI   8
PRINCE ALBERT  FLURRIES  28  25  86 S5        30.00F WCI  23
REGINA         CLOUDY    27  23  86 SE12      30.03F WCI  16
YORKTON        CLOUDY    28  27  93 S8        30.07F WCI  20
N. BATTLEFORD  CLOUDY    23  23 100 S13       29.95F WCI  11
LA RONGE       FRZ DRZL  23  21  93 S10       30.00S WCI  12
SASKATOON      CLOUDY    27  23  86 S9        29.99F WCI  17
SWIFT CURRENT  CLEAR     21  21 100 S14       29.89F WCI   8
$$
NOTE: THESE ARE AUTOMATED STATIONS WITH LIMITED QUALITY CONTROL
      "FAIR" INDICATES FEW OR NO CLOUDS BELOW 12,000 FEET WITH NO
      SIGNIFICANT WEATHER AND/OR OBSTRUCTIONS TO VISIBILITY.
      SKY/WX - SKY CONDITION AND SIGNIFICANT WEATHER.
      TMP - AIR TEMPERATURE.    DP   - DEWPOINT TEMPERATURE.
      RH  - RELATIVE HUMIDITY.  PRES - PRESSURE.
      HX  - HEAT INDEX.         WCI  - WIND CHILL INDEX.
$



USA.gov is the U.S. government's official web portal to all federal, state and local government web resources and services.